User: anonymous   Login
Location: Oshawa
(43.9000°N, 78.8670°W)
Time: 02:31:09
(UTC-04:00)
Language:

Explorer 11/Cluster Stage 4 - Orbit

View from above orbital plane
View from above orbital plane
View from above satellite
View from above satellite

Ground track
Ground track

The orbit data is extracted from the following two-line orbital elements,

1 00107U 61013A   18171.69498328  .00000320  00000-0  20769-4 0  9999
2 00107  28.7921 330.4907 0548179 283.7357  70.2799 14.08606470863067
Epoch (UTC): 20 June 2018 16:40:46
Eccentricity: 0.0548179
inclination: 28.7921°
perigee height: 467 km
apogee height: 1261 km
right ascension of ascending node: 330.4907°
argument of perigee: 283.7357°
revolutions per day: 14.08606470
mean anomaly at epoch: 70.2799°
orbit number at epoch: 86306

The dashed part of the orbit path shows where the satellite is in the earth's shadow,  

DLR